Location: Unspecified
(0.0000°N, 0.0000°E)
Time: 03:34:49
(UTC+00:00)

Courier 1B - Visible Passes

Search period start: 06 May 2016 00:00
Search period end: 16 May 2016 00:00
Orbit: 963 x 1209 km, 28.3° (Epoch: 04 May)

Date Brightness Start Highest point End Pass type
(mag) Time Alt. Az. Time Alt. Az. Time Alt. Az.
06 May 10.0 04:53:40 10° NNW 04:57:50 16° NNE 05:01:53 10° ENE visible
06 May 8.2 18:17:46 10° SW 18:24:40 46° SSE 18:31:57 10° E visible
06 May 8.3 20:11:42 10° WSW 20:19:03 56° NNW 20:20:36 49° N visible
07 May 10.2 04:00:49 10° N 04:03:39 12° NNE 04:06:24 10° NE visible
07 May 8.0 19:17:43 10° WSW 19:25:05 76° NNW 19:31:21 17° NE visible
07 May 9.7 21:13:46 10° WNW 21:18:19 23° NW 21:18:19 23° NW visible
08 May 9.5 04:58:42 10° NNW 05:04:46 28° NNE 05:10:32 10° E visible
08 May 7.8 18:23:57 10° SW 18:31:09 80° SSE 18:38:49 10° ENE visible
08 May 9.2 20:19:06 10° W 20:25:41 33° NNW 20:29:05 23° NNE visible
09 May 9.8 04:05:18 10° NNW 04:10:43 21° NNE 04:15:55 10° ENE visible
09 May 8.8 19:24:45 10° W 19:31:38 43° NNW 19:38:52 10° NE visible
09 May 10.1 21:22:43 10° NW 21:26:46 15° NNW 21:26:48 15° NNW visible
10 May 10.0 03:12:04 10° NNW 03:16:34 16° NNE 03:20:55 10° ENE visible
10 May 8.6 05:04:22 10° NW 05:11:28 50° NNE 05:18:09 10° ESE visible
10 May 8.4 18:30:40 10° WSW 18:37:40 59° NNW 18:45:08 10° NE visible
10 May 9.9 20:27:24 10° WNW 20:32:31 19° NNW 20:37:25 11° NNE visible
11 May 10.2 02:22:20 13° NNE 02:22:20 13° NNE 02:25:22 10° NE visible
11 May 9.0 04:10:42 10° NW 04:17:32 37° NNE 04:23:59 10° E visible
11 May 9.7 19:32:33 10° WNW 19:38:22 25° NNW 19:44:25 10° NNE visible
12 May 9.4 03:19:49 19° NNW 03:23:30 28° NNE 03:29:33 10° E visible
12 May 7.8 05:10:32 10° WNW 05:18:01 88° NNE 05:25:02 10° ESE visible
12 May 9.3 18:38:02 10° W 18:44:18 33° NNW 18:50:56 10° NE visible
12 May 10.3 20:37:19 10° NW 20:39:40 11° NNW 20:42:02 10° N visible
13 May 9.8 02:30:29 21° NE 02:30:29 21° NE 02:34:49 10° ENE visible
13 May 8.1 04:17:27 14° NW 04:24:08 66° NNE 04:31:14 10° ESE visible
13 May 10.2 19:41:28 10° NW 19:45:21 15° NNW 19:49:21 10° NNE visible
14 May 8.5 03:28:10 40° N 03:30:11 48° NNE 03:37:12 10° ESE visible
14 May 8.0 05:17:16 10° WNW 05:24:31 52° SSW 05:31:21 10° SE visible
14 May 10.0 18:46:19 10° WNW 18:51:10 19° NNW 18:56:13 10° NNE visible
15 May 9.4 02:38:55 28° ENE 02:38:55 28° ENE 02:42:56 10° E visible
15 May 7.7 04:25:54 25° WNW 04:30:38 73° SSW 04:37:50 10° SE visible
